[TLELIST] Archives

 

[list_settings.list_name] Current TLEs

August 6th 2011 PDT

HST 1 20580U 90037B 11217.97277732 .00000877 00000-0 53624-4 0 8120 2 20580 028.4706 051.2125 0003281 285.7724 074.2496 15.01443841967149 ISS (ZARYA) 1 25544U 98067A 11218.50623977 .00008102 00000-0 10324-3 0 8412 2 25544 051.6398 267.4691 0012768 047.4125 094.0969 15.60251110728765 CXO 1 25867U 99040B 11213.95833333 -.00000639 00000-0 00000+0 0 6293 2 25867 069.7252 028.4195 8642897 276.9147 001.2242 00.37800570 7941 ____________________________________________________________________ These 2-Line ...Continue Reading

[list_settings.list_name] Current TLEs

August 5th 2011 PDT

HST 1 20580U 90037B 11215.04801577 .00000741 00000-0 43304-4 0 8119 2 20580 028.4710 070.3193 0003627 254.6533 105.3631 15.01440311966705 ISS (ZARYA) 1 25544U 98067A 11217.21144816 .00005453 00000-0 71654-4 0 8341 2 25544 051.6393 273.9857 0012809 041.7152 022.2770 15.60230410728560 CXO 1 25867U 99040B 11213.95833333 -.00000639 00000-0 00000+0 0 6293 2 25867 069.7252 028.4195 8642897 276.9147 001.2242 00.37800570 7941 ____________________________________________________________________ These 2-Line ...Continue Reading

[list_settings.list_name] Current TLEs

August 4th 2011 PDT

HST 1 20580U 90037B 11215.04801577 .00000741 00000-0 43304-4 0 8119 2 20580 028.4710 070.3193 0003627 254.6533 105.3631 15.01440311966705 ISS (ZARYA) 1 25544U 98067A 11216.52067743 .00012999 00000-0 16186-3 0 8292 2 25544 051.6393 277.4590 0012818 038.4849 102.9866 15.60222602728453 CXO 1 25867U 99040B 11213.95833333 -.00000639 00000-0 00000+0 0 6293 2 25867 069.7252 028.4195 8642897 276.9147 001.2242 00.37800570 7941 ____________________________________________________________________ These 2-Line ...Continue Reading

[list_settings.list_name] Current TLEs

August 3rd 2011 PDT

HST 1 20580U 90037B 11215.04801577 .00000741 00000-0 43304-4 0 8119 2 20580 028.4710 070.3193 0003627 254.6533 105.3631 15.01440311966705 ISS (ZARYA) 1 25544U 98067A 11215.35901662 .00006134 00000-0 79622-4 0 8243 2 25544 051.6411 283.3001 0012407 036.5289 055.7583 15.60291590728271 CXO 1 25867U 99040B 11213.95833333 -.00000639 00000-0 00000+0 0 6293 2 25867 069.7252 028.4195 8642897 276.9147 001.2242 00.37800570 7941 ____________________________________________________________________ These 2-Line ...Continue Reading

[list_settings.list_name] Current TLEs

August 2nd 2011 PDT

HST 1 20580U 90037B 11214.05093849 .00000802 00000-0 47916-4 0 8104 2 20580 028.4714 076.8343 0003749 242.2903 117.7363 15.01439504966550 ISS (ZARYA) 1 25544U 98067A 11214.33302010 .00008415 00000-0 10688-3 0 8196 2 25544 051.6415 288.4672 0012403 033.1075 052.2928 15.60281898728115 CXO 1 25867U 99040B 11213.95833333 -.00000639 00000-0 00000+0 0 6293 2 25867 069.7252 028.4195 8642897 276.9147 001.2242 00.37800570 7941 ____________________________________________________________________ These 2-Line ...Continue Reading

[list_settings.list_name] Current TLEs

August 1st 2011 PDT

HST 1 20580U 90037B 11213.05385906 .00000680 00000-0 38690-4 0 8092 2 20580 028.4710 083.3482 0003668 233.5418 126.4824 15.01437882966407 ISS (ZARYA) 1 25544U 98067A 11213.37466133 .00007071 00000-0 90890-4 0 8120 2 25544 051.6412 293.2863 0012335 029.0823 069.6453 15.60266404727960 CXO 1 25867U 99040B 11213.95833333 -.00000639 00000-0 00000+0 0 6293 2 25867 069.7252 028.4195 8642897 276.9147 001.2242 00.37800570 7941 ____________________________________________________________________ These 2-Line ...Continue Reading

[list_settings.list_name] Current TLEs

July 31st 2011 PDT

HST 1 20580U 90037B 11211.12617048 .00000718 00000-0 41567-4 0 8081 2 20580 028.4707 095.9389 0003655 213.4679 146.5631 15.01436047966119 ISS (ZARYA) 1 25544U 98067A 11212.35221082 .00005668 00000-0 74185-4 0 8050 2 25544 051.6419 298.4283 0012053 025.8895 085.9805 15.60250202727804 CXO 1 25867U 99040B 11213.95833333 -.00000639 00000-0 00000+0 0 6293 2 25867 069.7252 028.4195 8642897 276.9147 001.2242 00.37800570 7941 ____________________________________________________________________ These 2-Line ...Continue Reading

[list_settings.list_name] Current TLEs

July 30th 2011 PDT

HST 1 20580U 90037B 11211.12617048 .00000718 00000-0 41567-4 0 8081 2 20580 028.4707 095.9389 0003655 213.4679 146.5631 15.01436047966119 ISS (ZARYA) 1 25544U 98067A 11211.19632749 .00006463 00000-0 83724-4 0 8005 2 25544 051.6419 304.2427 0012072 021.4210 073.6768 15.60238797727621 CXO 1 25867U 99040B 11211.33333333 -.00000707 00000-0 00000+0 0 6283 2 25867 069.6898 028.6399 8642941 276.9071 003.8168 00.37805382 7930 ____________________________________________________________________ These 2-Line ...Continue Reading

[list_settings.list_name] Current TLEs

July 29th 2011 PDT

HST 1 20580U 90037B 11210.12909047 .00001482 00000-0 99351-4 0 8075 2 20580 028.4710 102.4528 0003565 203.6577 156.3818 15.01436112965961 ISS (ZARYA) 1 25544U 98067A 11210.36606302 .00005234 00000-0 69061-4 0 7966 2 25544 051.6418 308.4224 0011972 018.6920 089.8335 15.60224585727499 CXO 1 25867U 99040B 11203.37500000 -.00000945 00000-0 00000+0 0 6278 2 25867 069.6379 029.2435 8639221 276.8987 000.2216 00.37804011 7904 ____________________________________________________________________ These 2-Line ...Continue Reading

[list_settings.list_name] Current TLEs

July 28th 2011 PDT

HST 1 20580U 90037B 11208.86612112 .00000721 00000-0 41789-4 0 8063 2 20580 028.4694 110.7059 0003629 194.0668 165.9800 15.01434462965770 ISS (ZARYA) 1 25544U 98067A 11209.46728506 .00007155 00000-0 92080-4 0 7934 2 25544 051.6415 312.9432 0011895 015.3863 081.5306 15.60216939727357 CXO 1 25867U 99040B 11203.37500000 -.00000945 00000-0 00000+0 0 6278 2 25867 069.6379 029.2435 8639221 276.8987 000.2216 00.37804011 7904 ____________________________________________________________________ These 2-Line ...Continue Reading
  • This mailing list is a public mailing list - anyone may join or leave, at any time.
  • This mailing list is announce-only.

International Space Station (ISS) / Hubble Space Telescope (HST) / Chandra X-Ray Observatory Orbital Data via EMAIL

Privacy Policy:

Private list